| time (UTC) | temp F | wind direction | speed MPH | gust MPH | rain 1hr in | rain 24hr in | rain mn in | humidity % | barometer mb |
| 20260906192116 | 87 | 337 | 5.0 | 10.0 | 0.00 | 0.00 | 0.00 | 52 | 1016.0 |
| 20260906191015 | 89 | 315 | 10.0 | 15.0 | 0.00 | 0.00 | 0.00 | 50 | 1016.1 |
| 20260906190015 | 88 | 337 | 8.0 | 12.0 | 0.00 | 0.00 | 0.00 | 52 | 1016.3 |
| 20260906185015 | 87 | 337 | 8.0 | 13.0 | 0.00 | 0.00 | 0.00 | 54 | 1016.4 |
| 20260906184015 | 88 | 0 | 10.0 | 14.0 | 0.00 | 0.00 | 0.00 | 52 | 1016.6 |
| 20260906183015 | 87 | 45 | 10.0 | 15.0 | 0.00 | 0.00 | 0.00 | 51 | 1016.7 |
| 20260906182015 | 86 | 22 | 11.0 | 16.0 | 0.00 | 0.00 | 0.00 | 55 | 1016.6 |
| 20260906181015 | 86 | 67 | 11.0 | 16.0 | 0.00 | 0.00 | 0.00 | 52 | 1016.8 |
| 20260906180015 | 87 | 90 | 11.0 | 15.0 | 0.00 | 0.00 | 0.00 | 49 | 1017.0 |
| 20260906175015 | 87 | 90 | 6.0 | 11.0 | 0.00 | 0.00 | 0.00 | 49 | 1017.1 |
| 20260906174015 | 87 | 90 | 2.0 | 4.0 | 0.00 | 0.00 | 0.00 | 50 | 1017.0 |
| 20260906173016 | 88 | 112 | 4.0 | 10.0 | 0.00 | 0.00 | 0.00 | 49 | 1017.4 |
| 20260906172015 | 89 | 112 | 5.0 | 10.0 | 0.00 | 0.00 | 0.00 | 47 | 1017.5 |
| 20260906171116 | 88 | 202 | 7.0 | 12.0 | 0.00 | 0.00 | 0.00 | 48 | 1017.5 |
| 20260906170015 | 88 | 90 | 3.0 | 6.0 | 0.00 | 0.00 | 0.00 | 50 | 1017.7 |
| 20260906165015 | 87 | 135 | 4.0 | 8.0 | 0.00 | 0.00 | 0.00 | 49 | 1017.8 |
| 20260906164015 | 88 | 202 | 6.0 | 11.0 | 0.00 | 0.00 | 0.00 | 48 | 1017.9 |
| 20260906163015 | 87 | 202 | 6.0 | 10.0 | 0.00 | 0.00 | 0.00 | 50 | 1017.7 |
| 20260906162015 | 86 | 202 | 5.0 | 9.0 | 0.00 | 0.00 | 0.00 | 55 | 1017.4 |
| 20260906161015 | 86 | 202 | 5.0 | 8.0 | 0.00 | 0.00 | 0.00 | 55 | 1017.8 |
| 20260906160015 | 85 | 202 | 4.0 | 7.0 | 0.00 | 0.00 | 0.00 | 55 | 1017.6 |
| 20260906155016 | 83 | 202 | 4.0 | 8.0 | 0.00 | 0.00 | 0.00 | 59 | 1017.6 |
| 20260906154116 | 83 | 247 | 5.0 | 10.0 | 0.00 | 0.00 | 0.00 | 59 | 1017.3 |
| 20260906153015 | 84 | 180 | 6.0 | 12.0 | 0.00 | 0.00 | 0.00 | 61 | 1017.5 |
| 20260906152016 | 82 | 202 | 4.0 | 6.0 | 0.00 | 0.00 | 0.00 | 63 | 1017.3 |
| 20260906151015 | 81 | 202 | 5.0 | 10.0 | 0.00 | 0.00 | 0.00 | 65 | 1017.1 |
| 20260906150015 | 80 | 180 | 4.0 | 7.0 | 0.00 | 0.00 | 0.00 | 67 | 1017.0 |
| 20260906145015 | 81 | 202 | 6.0 | 10.0 | 0.00 | 0.00 | 0.00 | 67 | 1017.1 |
| 20260906144015 | 80 | 202 | 5.0 | 7.0 | 0.00 | 0.00 | 0.00 | 69 | 1017.0 |
| 20260906143016 | 79 | 202 | 6.0 | 11.0 | 0.00 | 0.00 | 0.00 | 70 | 1017.1 |
| 20260906142016 | 79 | 180 | 8.0 | 12.0 | 0.00 | 0.00 | 0.00 | 70 | 1017.1 |
| 20260906141015 | 78 | 202 | 8.0 | 13.0 | 0.00 | 0.00 | 0.00 | 71 | 1017.1 |
| 20260906140015 | 78 | 202 | 6.0 | 12.0 | 0.00 | 0.00 | 0.00 | 72 | 1016.9 |
| 20260906135016 | 77 | 180 | 4.0 | 7.0 | 0.00 | 0.00 | 0.00 | 73 | 1016.9 |
| 20260906134015 | 76 | 180 | 4.0 | 9.0 | 0.00 | 0.00 | 0.00 | 77 | 1016.8 |
| 20260906133015 | 75 | 180 | 3.0 | 6.0 | 0.00 | 0.00 | 0.00 | 77 | 1016.4 |
| 20260906132016 | 74 | 180 | 1.0 | 3.0 | 0.00 | 0.00 | 0.00 | 79 | 1016.3 |
| 20260906131015 | 72 | 180 | 1.0 | 2.0 | 0.00 | 0.00 | 0.00 | 81 | 1016.2 |
| 20260906130016 | 71 | 180 | 1.0 | 3.0 | 0.00 | 0.00 | 0.00 | 82 | 1016.1 |
| 20260906125016 | 70 | 180 | 1.0 | 2.0 | 0.00 | 0.00 | 0.00 | 83 | 1015.7 |
| 20260906123116 | 69 | 202 | 1.0 | 2.0 | 0.00 | 0.00 | 0.00 | 84 | 1015.5 |
| 20260906122015 | 69 | 157 | 1.0 | 1.0 | 0.00 | 0.00 | 0.00 | 83 | 1015.2 |
| 20260906121015 | 69 | 67 | 1.0 | 2.0 | 0.00 | 0.00 | 0.00 | 84 | 1015.0 |
| 20260906120016 | 69 | 45 | 2.0 | 2.0 | 0.00 | 0.00 | 0.00 | 83 | 1015.0 |
| 20260906115015 | 69 | 22 | 1.0 | 2.0 | 0.00 | 0.00 | 0.00 | 82 | 1015.1 |
| 20260906114015 | 71 | 90 | 1.0 | 2.0 | 0.00 | 0.00 | 0.00 | 80 | 1015.1 |
| 20260906113015 | 72 | 0.0 | 1.0 | 0.00 | 0.00 | 0.00 | 80 | 1015.2 | |
| 20260906112015 | 72 | 180 | 1.0 | 2.0 | 0.00 | 0.00 | 0.00 | 80 | 1015.2 |
| 20260906111016 | 72 | 180 | 1.0 | 2.0 | 0.00 | 0.00 | 0.00 | 80 | 1015.0 |
| 20260906110016 | 72 | 180 | 1.0 | 2.0 | 0.00 | 0.00 | 0.00 | 80 | 1014.7 |
| 20260906105016 | 72 | 202 | 3.0 | 4.0 | 0.00 | 0.00 | 0.00 | 80 | 1014.6 |
| 20260906104016 | 71 | 180 | 3.0 | 4.0 | 0.00 | 0.00 | 0.00 | 80 | 1014.7 |
| 20260906103016 | 71 | 202 | 2.0 | 3.0 | 0.00 | 0.00 | 0.00 | 80 | 1015.0 |
| 20260906102015 | 71 | 180 | 1.0 | 2.0 | 0.00 | 0.00 | 0.00 | 80 | 1014.9 |
| 20260906101015 | 71 | 180 | 1.0 | 3.0 | 0.00 | 0.00 | 0.00 | 80 | 1014.9 |
| 20260906100016 | 71 | 202 | 3.0 | 4.0 | 0.00 | 0.00 | 0.00 | 80 | 1014.8 |
| 20260906095021 | 71 | 180 | 3.0 | 4.0 | 0.00 | 0.00 | 0.00 | 79 | 1014.9 |
| 20260906094016 | 71 | 180 | 2.0 | 3.0 | 0.00 | 0.00 | 0.00 | 79 | 1014.8 |
| 20260906093116 | 72 | 157 | 2.0 | 3.0 | 0.00 | 0.00 | 0.00 | 78 | 1015.0 |
| 20260906092116 | 72 | 157 | 2.0 | 4.0 | 0.00 | 0.00 | 0.00 | 78 | 1014.8 |
| 20260906090016 | 73 | 180 | 3.0 | 6.0 | 0.00 | 0.00 | 0.00 | 77 | 1015.3 |
| 20260906085016 | 73 | 180 | 3.0 | 6.0 | 0.00 | 0.00 | 0.00 | 76 | 1015.3 |
| 20260906084016 | 73 | 180 | 4.0 | 6.0 | 0.00 | 0.00 | 0.00 | 76 | 1015.4 |
| 20260906083016 | 73 | 180 | 5.0 | 7.0 | 0.00 | 0.00 | 0.00 | 76 | 1015.3 |
| 20260906081016 | 74 | 180 | 5.0 | 10.0 | 0.00 | 0.00 | 0.00 | 76 | 1015.4 |
| 20260906080016 | 74 | 180 | 3.0 | 5.0 | 0.00 | 0.00 | 0.00 | 75 | 1015.4 |
| 20260906075016 | 74 | 180 | 4.0 | 6.0 | 0.00 | 0.00 | 0.00 | 75 | 1015.6 |
| 20260906073016 | 74 | 180 | 4.0 | 9.0 | 0.00 | 0.00 | 0.00 | 73 | 1016.0 |
| 20260906072016 | 75 | 180 | 4.0 | 7.0 | 0.00 | 0.00 | 0.00 | 73 | 1016.2 |
| 20260906071016 | 75 | 180 | 3.0 | 6.0 | 0.00 | 0.00 | 0.00 | 73 | 1016.0 |
| 20260906070016 | 75 | 180 | 4.0 | 7.0 | 0.00 | 0.00 | 0.00 | 72 | 1016.2 |
| 20260906065016 | 76 | 180 | 6.0 | 10.0 | 0.00 | 0.00 | 0.00 | 71 | 1016.1 |
| 20260906064116 | 76 | 180 | 5.0 | 8.0 | 0.00 | 0.00 | 0.00 | 70 | 1016.2 |
| 20260906063016 | 76 | 180 | 6.0 | 9.0 | 0.00 | 0.00 | 0.00 | 69 | 1016.4 |
| 20260906062016 | 77 | 180 | 5.0 | 13.0 | 0.00 | 0.00 | 0.00 | 69 | 1016.5 |
| 20260906061016 | 77 | 180 | 5.0 | 9.0 | 0.00 | 0.00 | 0.00 | 68 | 1016.7 |
| 20260906060016 | 77 | 157 | 4.0 | 9.0 | 0.00 | 0.00 | 0.00 | 68 | 1016.5 |
| 20260906055016 | 78 | 180 | 5.0 | 11.0 | 0.00 | 0.00 | 0.00 | 67 | 1016.3 |
| 20260906054016 | 78 | 180 | 5.0 | 12.0 | 0.00 | 0.00 | 0.00 | 66 | 1016.2 |
| 20260906053016 | 78 | 180 | 6.0 | 11.0 | 0.00 | 0.00 | 0.00 | 65 | 1016.5 |
| 20260906052016 | 79 | 180 | 6.0 | 12.0 | 0.00 | 0.00 | 0.00 | 64 | 1016.2 |
| 20260906051016 | 79 | 180 | 7.0 | 13.0 | 0.00 | 0.00 | 0.00 | 63 | 1016.1 |
| 20260906050016 | 80 | 180 | 6.0 | 11.0 | 0.00 | 0.00 | 0.00 | 60 | 1016.1 |
| 20260906045016 | 80 | 180 | 10.0 | 20.0 | 0.00 | 0.00 | 0.00 | 61 | 1016.4 |
| 20260906044016 | 79 | 157 | 3.0 | 5.0 | 0.00 | 0.00 | 0.00 | 61 | 1015.9 |
| 20260906043016 | 79 | 180 | 2.0 | 4.0 | 0.00 | 0.00 | 0.00 | 61 | 1015.8 |
| 20260906042016 | 78 | 157 | 2.0 | 5.0 | 0.00 | 0.00 | 0.00 | 62 | 1015.9 |
| 20260906041015 | 78 | 157 | 2.0 | 3.0 | 0.00 | 0.00 | 0.00 | 62 | 1016.1 |
| 20260906040016 | 79 | 157 | 2.0 | 3.0 | 0.00 | 0.00 | 0.00 | 61 | 1015.8 |
| 20260906035015 | 79 | 135 | 2.0 | 5.0 | 0.00 | 0.00 | 0.00 | 60 | 1015.7 |
| 20260906034016 | 79 | 157 | 2.0 | 4.0 | 0.00 | 0.00 | 0.00 | 60 | 1015.8 |
| 20260906033016 | 79 | 180 | 2.0 | 5.0 | 0.00 | 0.00 | 0.00 | 60 | 1015.6 |
| 20260906032015 | 79 | 180 | 2.0 | 3.0 | 0.00 | 0.00 | 0.00 | 60 | 1015.8 |
| 20260906031016 | 79 | 157 | 2.0 | 3.0 | 0.00 | 0.00 | 0.00 | 60 | 1015.7 |
| 20260906030017 | 80 | 157 | 1.0 | 4.0 | 0.00 | 0.00 | 0.00 | 60 | 1015.4 |
| 20260906025017 | 80 | 135 | 2.0 | 4.0 | 0.00 | 0.00 | 0.00 | 60 | 1015.3 |
| 20260906024016 | 80 | 135 | 2.0 | 4.0 | 0.00 | 0.00 | 0.00 | 60 | 1014.6 |
| 20260906023016 | 80 | 135 | 2.0 | 3.0 | 0.00 | 0.00 | 0.00 | 59 | 1014.5 |
| 20260906022016 | 80 | 135 | 1.0 | 3.0 | 0.00 | 0.00 | 0.00 | 59 | 1014.3 |
| 20260906021021 | 81 | 135 | 1.0 | 2.0 | 0.00 | 0.00 | 0.00 | 59 | 1014.3 |
| 20260906020015 | 81 | 157 | 1.0 | 2.0 | 0.00 | 0.00 | 0.00 | 58 | 1014.1 |
| 20260906014016 | 83 | 135 | 1.0 | 3.0 | 0.00 | 0.00 | 0.00 | 56 | 1013.9 |
| 20260906013016 | 83 | 157 | 1.0 | 2.0 | 0.00 | 0.00 | 0.00 | 55 | 1013.9 |
| 20260906012016 | 84 | 135 | 1.0 | 3.0 | 0.00 | 0.00 | 0.00 | 54 | 1013.7 |
| 20260906011016 | 84 | 157 | 2.0 | 5.0 | 0.00 | 0.00 | 0.00 | 54 | 1013.7 |
| 20260906005016 | 86 | 135 | 2.0 | 5.0 | 0.00 | 0.00 | 0.00 | 55 | 1013.7 |
| 20260906004016 | 86 | 135 | 2.0 | 5.0 | 0.00 | 0.00 | 0.00 | 54 | 1013.7 |
| 20260906003016 | 86 | 180 | 2.0 | 4.0 | 0.00 | 0.00 | 0.00 | 54 | 1013.7 |
| 20260906001016 | 87 | 180 | 3.0 | 5.0 | 0.00 | 0.00 | 0.00 | 53 | 1013.4 |
| 20260906000016 | 87 | 180 | 5.0 | 10.0 | 0.00 | 0.00 | 0.00 | 52 | 1013.2 |
| 20260905235016 | 88 | 180 | 5.0 | 9.0 | 0.00 | 0.00 | 0.00 | 53 | 1013.3 |
| 20260905234016 | 87 | 202 | 6.0 | 11.0 | 0.00 | 0.00 | 0.00 | 54 | 1013.5 |
| 20260905232016 | 87 | 202 | 7.0 | 11.0 | 0.00 | 0.00 | 0.00 | 54 | 1013.4 |
| 20260905231016 | 87 | 202 | 7.0 | 13.0 | 0.00 | 0.00 | 0.00 | 55 | 1013.6 |
| 20260905230016 | 86 | 202 | 8.0 | 13.0 | 0.00 | 0.00 | 0.00 | 56 | 1013.3 |
| 20260905225016 | 87 | 202 | 10.0 | 18.0 | 0.00 | 0.00 | 0.00 | 58 | 1013.6 |
| 20260905224016 | 87 | 202 | 14.0 | 27.0 | 0.00 | 0.00 | 0.00 | 56 | 1013.7 |
| 20260905223016 | 90 | 202 | 9.0 | 15.0 | 0.00 | 0.00 | 0.00 | 50 | 1013.6 |
| 20260905222016 | 90 | 202 | 8.0 | 11.0 | 0.00 | 0.00 | 0.00 | 50 | 1013.5 |
| 20260905221016 | 90 | 180 | 9.0 | 14.0 | 0.00 | 0.00 | 0.00 | 49 | 1013.3 |
| 20260905220118 | 90 | 202 | 10.0 | 14.0 | 0.00 | 0.00 | 0.00 | 49 | 1013.5 |
| 20260905215016 | 89 | 202 | 8.0 | 12.0 | 0.00 | 0.00 | 0.00 | 51 | 1013.5 |
| 20260905214016 | 87 | 202 | 4.0 | 6.0 | 0.00 | 0.00 | 0.00 | 58 | 1013.6 |
| 20260905213016 | 88 | 202 | 4.0 | 6.0 | 0.00 | 0.00 | 0.00 | 52 | 1013.6 |
| 20260905212017 | 87 | 225 | 3.0 | 6.0 | 0.00 | 0.00 | 0.00 | 53 | 1013.8 |
| 20260905211016 | 87 | 225 | 6.0 | 11.0 | 0.00 | 0.00 | 0.00 | 53 | 1013.9 |
| 20260905210016 | 89 | 247 | 6.0 | 12.0 | 0.00 | 0.00 | 0.00 | 50 | 1014.0 |
| 20260905205016 | 92 | 157 | 5.0 | 10.0 | 0.00 | 0.00 | 0.00 | 43 | 1014.2 |
| 20260905204016 | 92 | 90 | 10.0 | 14.0 | 0.00 | 0.00 | 0.00 | 42 | 1014.5 |
| 20260905203016 | 94 | 112 | 7.0 | 12.0 | 0.00 | 0.00 | 0.00 | 41 | 1014.8 |
| 20260905202016 | 92 | 135 | 6.0 | 13.0 | 0.00 | 0.00 | 0.00 | 45 | 1014.7 |
| 20260905201116 | 91 | 90 | 5.0 | 11.0 | 0.00 | 0.00 | 0.00 | 43 | 1014.5 |
| 20260905200016 | 93 | 90 | 7.0 | 11.0 | 0.00 | 0.00 | 0.00 | 43 | 1014.8 |
| 20260905195016 | 93 | 157 | 4.0 | 7.0 | 0.00 | 0.00 | 0.00 | 43 | 1014.9 |
| 20260905194016 | 92 | 180 | 6.0 | 12.0 | 0.00 | 0.00 | 0.00 | 44 | 1015.0 |
| 20260905193016 | 91 | 90 | 8.0 | 15.0 | 0.00 | 0.00 | 0.00 | 45 | 1015.5 |